Chongqing, China

8:48 AM CST on November 21, 2019 (GMT +0800)
Jiangbei

Weather History for ZUCK - September, 2019

Change the Weather History Date:

Friday, September 20, 2019

  Actual Average Record
Temperature  
Mean Temperature 72 °F -  
Max Temperature 77 °F - - ()
Min Temperature 66 °F - - ()
Cooling Degree Days 6    
Growing Degree Days 22 (Base 50)    
Moisture  
Dew Point 65 °F    
Average Humidity 88    
Maximum Humidity 100    
Minimum Humidity 51    
Precipitation  
Precipitation 0.12 in - - ()
Sea Level Pressure  
Sea Level Pressure 30.11 in    
Wind  
Wind Speed 4 mph ()    
Max Wind Speed 9 mph    
Max Gust Speed -    
Visibility 5.9 miles    
Events Rain    
T = Trace of Precipitation, MM = Missing Value Source: Averaged Metar Reports

Daily Weather History Graph

Daily Weather History Graph

Search for Another Location

Airport or City:

Astronomy

Sep. 20, 2019 Rise Set
Actual Time 6:40 AM CST 6:53 PM CST
Civil Twilight 6:16 AM CST 7:17 PM CST
Nautical Twilight 5:48 AM CST 7:45 PM CST
Astronomical Twilight 5:20 AM CST 8:13 PM CST
Moon 10:44 PM CST (9/20) 11:48 AM CST (9/20)
Length of Visible Light 13h 00m
Length of Day
12h 13m
Waning Gibbous, 70% of the Moon is Illuminated
Sep 20
Waning Gibbous
Sep 22
Last Quarter
Sep 29
New
Oct 6
First Quarter
Oct 14
Full

Hourly Weather History & Observations

Time (CST) Temp. Dew Point Humidity Pressure Visibility Wind Dir Wind Speed Gust Speed Precip Events Conditions
12:00 AM 66.2 °F 66.2 °F 100% 30.12 in 2.5 mi Calm Calm - N/A Rain Light Rain
1:00 AM 66.2 °F 66.2 °F 100% 30.09 in 2.5 mi WNW 2.2 mph - N/A Rain Light Rain
2:00 AM 67 °F 66 °F 96% 30.07 in 1 mi NW 2.2 mph - - Rain Light Rain
2:00 AM 66.2 °F 66.2 °F 100% 30.09 in 5.0 mi WNW 4.5 mph - N/A Rain Light Rain
3:00 AM 66.2 °F 66.2 °F 100% 30.09 in 3.1 mi WNW 6.7 mph - N/A Rain Light Rain
4:00 AM 66.2 °F 66.2 °F 100% 30.09 in 3.1 mi NW 6.7 mph - N/A Rain Light Rain
5:00 AM 67 °F 66 °F 95% 30.06 in 4 mi NW 2.2 mph - - Rain Light Rain
5:00 AM 66.2 °F 66.2 °F 100% 30.09 in 6.2 mi WNW 6.7 mph - N/A   Scattered Clouds
6:00 AM 66.2 °F 66.2 °F 100% 30.09 in 4.3 mi NW 8.9 mph - N/A Rain Light Rain
7:00 AM 66.2 °F 64.4 °F 94% 30.12 in 3.1 mi NW 6.7 mph - N/A Rain Light Rain
8:00 AM 67 °F 65 °F 92% 30.10 in 7 mi WNW 2.2 mph - -   Overcast
8:00 AM 66.2 °F 64.4 °F 94% 30.12 in 6.2 mi Variable 8.9 mph - N/A   Scattered Clouds
9:00 AM 66.2 °F 64.4 °F 94% 30.15 in 6.2 mi NW 8.9 mph - N/A   Partly Cloudy
10:00 AM 66.2 °F 64.4 °F 94% 30.15 in 6.2 mi NW 8.9 mph - N/A Rain Light Rain
11:00 AM 69 °F 64 °F 79% 30.14 in 11 mi WNW 6.7 mph - - Rain Light Rain
11:00 AM 68.0 °F 66.2 °F 94% 30.18 in 6.2 mi West 6.7 mph - N/A Rain Light Rain
12:00 PM 68.0 °F 66.2 °F 94% 30.18 in 6.2 mi West 4.5 mph - N/A Rain Light Rain
1:00 PM 69.8 °F 66.2 °F 88% 30.15 in 6.2 mi WNW 4.5 mph - N/A   Partly Cloudy
2:00 PM 74 °F 65 °F 66% 30.11 in 15 mi West 2.2 mph - - Rain Light Rain
2:00 PM 71.6 °F 64.4 °F 78% 30.15 in 6.2 mi West 8.9 mph - N/A   Partly Cloudy
3:00 PM 73.4 °F 62.6 °F 69% 30.12 in 6.2 mi West 6.7 mph - N/A   Scattered Clouds
4:00 PM 75.2 °F 62.6 °F 65% 30.09 in 6.2 mi NNW 6.7 mph - N/A   Scattered Clouds
5:00 PM 77 °F 62 °F 51% 30.05 in 17 mi NNW 2.2 mph - -   Overcast
5:00 PM 73.4 °F 62.6 °F 69% 30.09 in 6.2 mi ESE 6.7 mph - N/A   Mostly Cloudy
6:00 PM 71.6 °F 64.4 °F 78% 30.09 in 6.2 mi ESE 4.5 mph - N/A   Scattered Clouds
7:00 PM 69.8 °F 64.4 °F 83% 30.12 in 6.2 mi Calm Calm - N/A   Partly Cloudy
8:00 PM 72 °F 65 °F 73% 30.08 in 4 mi South 4.5 mph - -   Overcast
8:00 PM 68.0 °F 66.2 °F 94% 30.12 in 6.2 mi Calm Calm - N/A   Partly Cloudy
9:00 PM 68.0 °F 64.4 °F 88% 30.15 in - Calm Calm - N/A   Clear
10:00 PM 68.0 °F 66.2 °F 94% 30.15 in - SE 4.5 mph - N/A   Clear
11:00 PM 69 °F 66 °F 86% 30.12 in 3 mi SSW 2.2 mph - -   Mist
11:00 PM 66.2 °F 64.4 °F 94% 30.15 in - South 2.2 mph - N/A   Clear